Regional Weather Roundup
Issued by NWS

Home | Current Version | Previous Version | Graphics & Text | Print | Product List | Glossary On
Versions: 1 2 3 4 5 6 7 8 9 10 11 12 13 14 15 16 17 18 19 20 21 22 23 24 25 26 27 28 29 30 31 32 33 34 35 36 37 38 39 40 41 42 43 44 45 46 47 48 49 50
755
ASUS43 KLMK 101810
RWRKY
KENTUCKY REGIONAL WEATHER ROUNDUP
NATIONAL WEATHER SERVICE LOUISVILLE KY
100 PM EST WED FEB 10 2016

NOTE "FAIR" INDICATES FEW OR NO CLOUDS BELOW 12,000 FEET
WITH NO SIGNIFICANT WEATHER AND/OR OBSTRUCTIONS TO VISIBILITY.

KYZ001>023-026-027-061>063-070>075-101900-
WESTERN AND SOUTH CENTRAL KENTUCKY

CITY           SKY/WX    TMP DP  RH WIND       PRES   REMARKS
PADUCAH        CLOUDY    24  10  55 SW8       30.20F WCI  15
HENDERSON      PTSUNNY   21   9  58 W8        30.17F WCI  12
OWENSBORO      MOSUNNY   22   8  54 W12       30.17F WCI  11
HOPKINSVILLE   MOSUNNY   23   9  54 NW8       30.18F WCI  14
BOWLING GREEN  MOSUNNY   23   9  55 W12       30.19F WCI  12
GLASGOW        PTSUNNY   20  10  67 W10       30.16F WCI   8
$$

KYZ024-025-028>034-038-045-046-053-101900-
NORTH CENTRAL KENTUCKY

CITY           SKY/WX    TMP DP  RH WIND       PRES   REMARKS
LOUISVILLE/SDF PTSUNNY   21   8  57 W18G25    30.12F WCI   6
LOUISVILLE/LOU PTSUNNY   18   5  57 W13       30.12F WCI   5
FORT KNOX      PTSUNNY   17   6  60 SW9       30.09F WCI   6
$$

KYZ035>037-039>044-047>052-055>060-089>105-101900-
NORTHEAST KENTUCKY

CITY           SKY/WX    TMP DP  RH WIND       PRES   REMARKS
LEXINGTON      CLOUDY    17   7  64 W14       30.07S WCI   3
COVINGTON      FLURRIES  17   7  64 W14G23    30.03S WCI   3
FRANKFORT      CLOUDY    18   5  57 W14       30.08S WCI   4
$$

KYZ054-064>069-076>088-106>120-101900-
SOUTHEAST KENTUCKY

CITY           SKY/WX    TMP DP  RH WIND       PRES   REMARKS
JACKSON        LGT SNOW  20  11  68 SW8G17    30.00S WCI  10
LONDON         CLOUDY    18   7  62 W16       30.07S WCI   3
SOMERSET       CLOUDY    18   9  68 W14G21    30.13S WCI   4
MIDDLESBORO    CLOUDY    22   9  57 W10G20    30.07S WCI  11
MONTICELLO     FLURRIES  17   9  70 W16       30.15R WCI   2
$$





USA.gov is the U.S. government's official web portal to all federal, state and local government web resources and services.